Location: Unspecified
(0.0000°N, 0.0000°E)
Time: 15:49:15
(UTC+00:00)

X-37B - Visible Passes

Search period start: 19 October 2020 00:00
Search period end: 29 October 2020 00:00
Orbit: 382 x 392 km, 45.0° (Epoch: 15 October)

Date Brightness Start Highest point End Pass type
(mag) Time Alt. Az. Time Alt. Az. Time Alt. Az.
21 Oct 2.4 18:26:47 10° N 18:28:38 15° NE 18:28:52 14° NE visible
22 Oct 1.1 19:03:27 10° NW 19:06:34 58° SW 19:07:05 49° S visible
23 Oct 1.1 18:05:04 10° NNW 18:08:03 40° NE 18:11:03 10° ESE visible
24 Oct 3.4 18:43:37 10° W 18:46:00 19° SW 18:48:21 10° S visible
26 Oct 0.8 05:15:04 10° SW 05:18:13 75° SE 05:21:22 10° NE visible
27 Oct 2.9 04:17:10 11° S 04:19:42 24° SE 04:22:19 10° ENE visible
28 Oct 1.4 04:55:42 17° WSW 04:57:37 32° NW 05:00:30 10° NNE visible
